Location: Heiligenberg
(48.5381°N, 7.3897°E)
Time: 21:31:40
(UTC+00:00)

AQUA - Pass Details

Date: 26 May 2022
Orbit: 701 x 703 km, 98.2° (Epoch: 04 July)

Event Time Altitude Azimuth Distance (km) Brightness Sun altitude
Rises 01:11:51 0° 18° (NNE) 3,104 8.9 -16.6°
Reaches altitude 10° 01:14:11 10° 23° (NNE) 2,180 7.7 -16.4°
Maximum altitude 01:18:51 51° 100° (E) 883 4.4 -16.0°
Enters shadow 01:22:03 19° 170° (S) 1,629 5.3 -15.8°
